This is the latest recevied weather packets stored in our database for station/object IR4UCA. If no packets are shown the sender has not sent any weather packets the latest 1 day(s).
| Time | Temp. | Humidity | Pressure | Rain* | Wind** | Luminosity | Snow |
|---|---|---|---|---|---|---|---|
| 1777991384 | 20° C | 83% | 1011.5 hPa | 0 mm | 3.13 m/s, 0° | - | - |
| 1777990785 | 19.44° C | 83% | 1011.4 hPa | 0 mm | 1.79 m/s, 10° | - | - |
| 1777989585 | 20° C | 81% | 1011.5 hPa | 0 mm | 2.68 m/s, 0° | - | - |
| 1777988983 | 20.56° C | 80% | 1011.5 hPa | 0 mm | 2.24 m/s, 7° | - | - |
| 1777987183 | 20° C | 84% | 1011.8 hPa | 0 mm | 1.34 m/s, 20° | - | - |
| 1777986584 | 19.44° C | 85% | 1011.9 hPa | 0 mm | 0.89 m/s, 48° | - | - |
| 1777985984 | 18.89° C | 86% | 1012 hPa | 0 mm | 0.89 m/s, 69° | - | - |
| 1777985383 | 18.89° C | 87% | 1012.1 hPa | 0 mm | 0.89 m/s, 52° | - | - |
| 1777984783 | 18.33° C | 87% | 1012.1 hPa | 0 mm | 1.34 m/s, 65° | - | - |
| 1777984185 | 18.33° C | 88% | 1012.4 hPa | 0 mm | 0.89 m/s, 65° | - | - |
| 1777982984 | 17.78° C | 89% | 1012.5 hPa | 0 mm | 0.89 m/s, 75° | - | - |
| 1777982386 | 17.22° C | 90% | 1012.7 hPa | 0 mm | 0.45 m/s, 59° | - | - |
| 1777981784 | 16.67° C | 90% | 1012.7 hPa | 0 mm | 1.79 m/s, 72° | - | - |
| 1777979985 | 16.67° C | 91% | 1012.7 hPa | 0 mm | 2.24 m/s, 68° | - | - |
| 1777979384 | 16.11° C | 90% | 1012.9 hPa | 0.25 mm | 2.24 m/s, 71° | - | - |
| 1777978785 | 16.11° C | 91% | 1012.9 hPa | 1.02 mm | 1.34 m/s, 93° | - | - |
| 1777978184 | 15.56° C | 90% | 1013 hPa | 1.52 mm | 1.34 m/s, 71° | - | - |
| 1777977583 | 15.56° C | 90% | 1012.9 hPa | 1.52 mm | 1.79 m/s, 65° | - | - |
| 1777976985 | 15.56° C | 90% | 1013 hPa | 1.78 mm | 1.79 m/s, 49° | - | - |
| 1777975785 | 15.56° C | 90% | 1012.9 hPa | 1.78 mm | 1.34 m/s, 123° | - | - |
| 1777974583 | 15.56° C | 90% | 1012.9 hPa | 1.02 mm | 0.89 m/s, 102° | - | - |
| 1777973984 | 15.56° C | 90% | 1012.9 hPa | 1.02 mm | 0.45 m/s, 39° | - | - |
| 1777973384 | 15.56° C | 90% | 1012.6 hPa | 0.76 mm | 0.45 m/s, 32° | - | - |
| 1777972183 | 15° C | 90% | 1013.3 hPa | 0.51 mm | 0.89 m/s, 63° | - | - |
| 1777971586 | 15° C | 90% | 1013.4 hPa | 0.51 mm | 0.45 m/s, 16° | - | - |
* Rain latest hour (hover to see other rain measurements)
** Current wind speed in m/s (hover to see current wind gust speed)